Regional Weather Roundup
Issued by NWS

Home | Current Version | Previous Version | Text Only | Print | Product List | Glossary On
Versions: 1 2 3 4 5 6 7 8 9 10 11 12 13 14 15 16 17 18 19 20 21 22 23 24 25 26 27 28 29 30 31 32 33 34 35 36 37 38 39 40 41 42 43 44 45 46 47 48 49 50
652
ASUS44 KLIX 171713
RWRLA
LOUISIANA WEATHER ROUNDUP
NATIONAL WEATHER SERVICE NEW ORLEANS LA
1200 PM CDT TUE OCT 17 2017

NOTE: "FAIR" INDICATES FEW OR NO CLOUDS BELOW 12,000 FEET WITH NO
      SIGNIFICANT WEATHER AND/OR OBSTRUCTIONS TO VISIBILITY.
      SKY/WX - SKY CONDITION AND SIGNIFICANT WEATHER.
      TMP - AIR TEMPERATURE.    DP   - DEWPOINT TEMPERATURE.
      RH  - RELATIVE HUMIDITY.  PRES - PRESSURE.
      HX  - HEAT INDEX.         WCI  - WIND CHILL INDEX.

*  THESE STATIONS ARE NOT NWS OR FAA STATIONS AND ARE NOT UNDER
   NWS QUALITY CONTROL.

LAZ040-048-061>063-065-066-069-171800-
SOUTHEAST LOUISIANA

CITY           SKY/WX    TMP DP  RH WIND       PRES   REMARKS
N.O. INTL ARPT MOSUNNY   67  56  67 NE8       30.20F
N.O. LAKEFRONT SUNNY     68  56  65 E9        30.20F
N.O. DOWNTOWN* FAIR      67  55  65 NE7       30.21F
RESERVE*       FAIR      70  54  56 E5        30.20F
SLIDELL        SUNNY     70  55  59 VRB5      30.20F
BATON ROUGE    SUNNY     69  51  52 VRB6      30.21F
BOOTHVILLE     PTSUNNY   74  63  68 NE8       30.18S
BELLE CHASSE   PTSUNNY   69  61  75 NE12G21   30.19F
BOGALUSA*      FAIR      72  54  54 E9        30.22F
GALLIANO*      MOSUNNY   69  56  63 NE8       30.19S
NEW ROADS*     FAIR      68  50  52 CALM      30.23S
GONZALES*      FAIR      68  51  54 CALM      30.20F
HAMMOND*       SUNNY     70  52  52 E7        30.21F
HOUMA*         SUNNY     70  55  60 N6        30.19F
PORT FOURCHON* MOSUNNY   70  61  73 NE14G21   30.18F

$$

LAZ041-044-053-054-171800-
SOUTHWEST LOUISIANA

CITY           SKY/WX    TMP DP  RH WIND       PRES   REMARKS
LAKE CHARLES   SUNNY     71  45  39 N8        30.24F
LAFAYETTE      SUNNY     70  49  47 MISG      30.22F
PATTERSON      NOT AVBL
SALT POINT       N/A     69  53  56 N7        30.18F
NEW IBERIA     SUNNY     68  46  45 E8        30.22F
CHENAULT AIRPK SUNNY     70  46  43 NE7       30.25S

$$

LAZ027-028-171800-
CENTRAL LOUISIANA

CITY           SKY/WX    TMP DP  RH WIND       PRES   REMARKS
FORT POLK      SUNNY     67  44  42 N6        30.25F
ALEXANDRIA INT SUNNY     69  44  40 NE7       30.24F
ALEXANDRIA     SUNNY     69  46  43 VRB3      30.25F

$$

LAZ001-002-171800-
NORTHWEST LOUISIANA

CITY           SKY/WX    TMP DP  RH WIND       PRES   REMARKS
SHREVEPORT     SUNNY     67  43  41 VRB6      30.30F
BARKSDALE AFB  SUNNY     68  42  37 NE7       30.30F
DTN SHREVEPORT MOSUNNY   67  44  43 N7        30.31F

$$

LAZ014-016-171800-
NORTHEAST LOUISIANA

CITY           SKY/WX    TMP DP  RH WIND       PRES   REMARKS
MONROE         SUNNY     69  46  43 NE7       30.29F
TALLULAH       SUNNY     67  52  58 NE3       30.27F

$$





USA.gov is the U.S. government's official web portal to all federal, state and local government web resources and services.